LiveATC.Net - Listen to live air traffic control over the Internet! Contact LiveATC.net for advertising information


ICAO: KSPB  IATA: SPB   Airport: Scappoose Industrial Airpark
City: Scappoose   State/Province: Oregon
Country: United States   Continent: North America
KSPB METAR Weather: KSPB 011753Z AUTO 15004KT 10SM OVC075 20/12 A3009 RMK AO2 SLP189 T02000117 10206 20106 56001 $
KSPB Flight Activity (FlightAware)
KSPB Airport Info   (AirNav) (iFlightPlanner)
KSPB CTAF
Feed Status: DOWN
Last heard on: 2014-08-24 21:34:03 (7 days 20 hours 58 minutes ago)
KSPB CTAF Audio Archives
FacilityFrequency
Scappoose CTAF122.800


NOTICE

Unauthorized use prohibited. See LiveATC.net Terms of Service


Find LiveATC Audio Streams


Airport/ARTCC Code

Frequency
(e.g., 124.400, 128.75)
Site-wide search

Browse LiveATC Feeds
LiveATC Coverage Map
Top 50 LiveATC Feeds
Bad Weather Areas

LiveATC FAQ
Offer a LiveATC Feed
Contact LiveATC.net
Press Inquiries

LiveATC on iPhone
LiveATC on Android

LiveATC Mobile
(Mobile browser)

ATC Audio Archives
Interesting Recordings

LiveATC Forums


Home Page
About LiveATC.net
Make a Donation
LiveATC Bookstore

Terms of Use
Privacy Policy

ATC/Radar Sites
U.S. ARTCC Freqs
Canadian Air Freqs

AIRMETs/SIGMETs

FAA Airport Status
Nat'l Airspace Status
Arrival Demand Charts


Server Software By:
Icecast.org
Liquidsoap

Please make a donation to help us keep growing!